Time,TemperatureF,DewpointF,PressureIn,WindDirection,WindDirectionDegrees,WindSpeedMPH,WindSpeedGustMPH,Humidity,HourlyPrecipIn,Conditions,Clouds,dailyrainin,SoftwareType,DateUTC
2013-02-21 00:00:00,25.2,7.8,29.98,SE,146,2.7,3.1,47,0.00,,,7.41,VWS V13.01,2013-02-21 05:00:00,
2013-02-21 00:05:00,25.3,7.9,29.98,SE,146,0.0,2.2,47,0.00,,,0.00,VWS V13.01,2013-02-21 05:05:00,
2013-02-21 00:10:00,25.2,7.8,29.98,NNW,327,0.0,3.6,47,0.00,,,0.00,VWS V13.01,2013-02-21 05:10:00,
2013-02-21 00:15:00,25.0,7.6,29.98,SSW,206,3.1,4.5,47,0.00,,,0.00,VWS V13.01,2013-02-21 05:15:00,
2013-02-21 00:20:00,25.0,7.6,29.98,North,353,0.0,8.3,47,0.00,,,0.00,VWS V13.01,2013-02-21 05:20:00,
2013-02-21 00:25:00,25.0,7.6,29.98,SE,145,0.0,2.7,47,0.00,,,4.94,VWS V13.01,2013-02-21 05:25:00,
2013-02-21 00:30:00,25.0,7.6,29.98,West,281,0.0,2.7,47,0.00,,,0.00,VWS V13.01,2013-02-21 05:30:00,
2013-02-21 00:35:00,25.0,8.1,29.98,SW,224,0.0,0.0,48,0.00,,,0.00,VWS V13.01,2013-02-21 05:35:00,
2013-02-21 00:40:00,25.0,7.6,29.98,ENE,78,0.0,3.1,47,0.00,,,0.00,VWS V13.01,2013-02-21 05:40:00,
2013-02-21 00:45:00,25.0,8.1,29.98,ENE,78,0.0,0.0,48,0.00,,,0.00,VWS V13.01,2013-02-21 05:45:00,
2013-02-21 00:50:00,25.0,9.0,29.98,ENE,78,0.0,2.2,50,0.00,,,0.00,VWS V13.01,2013-02-21 05:50:00,
2013-02-21 00:55:00,24.8,8.8,29.98,SSW,195,0.0,3.1,50,0.00,,,0.00,VWS V13.01,2013-02-21 05:55:00,
2013-02-21 01:00:00,24.8,7.9,29.98,SSW,195,0.0,0.0,48,0.00,,,0.00,VWS V13.01,2013-02-21 06:00:00,
2013-02-21 01:05:00,24.8,7.9,29.98,SSW,195,0.0,0.0,48,0.00,,,0.00,VWS V13.01,2013-02-21 06:05:00,
2013-02-21 01:10:00,24.8,8.4,29.98,SSW,198,0.0,0.0,49,0.00,,,0.00,VWS V13.01,2013-02-21 06:10:00,
2013-02-21 01:15:00,24.8,8.4,29.98,SSW,198,0.0,0.0,49,0.00,,,0.00,VWS V13.01,2013-02-21 06:15:00,
2013-02-21 01:20:00,24.6,7.7,29.98,SSW,198,0.0,0.0,48,0.00,,,0.00,VWS V13.01,2013-02-21 06:20:00,
2013-02-21 01:25:00,24.8,8.4,29.98,SSW,198,0.0,0.0,49,0.00,,,0.00,VWS V13.01,2013-02-21 06:25:00,
2013-02-21 01:30:00,24.8,8.4,29.98,SW,221,0.0,3.1,49,0.00,,,0.00,VWS V13.01,2013-02-21 06:30:00,
2013-02-21 01:35:00,24.8,8.8,29.98,West,259,0.0,0.0,50,0.00,,,0.00,VWS V13.01,2013-02-21 06:35:00,
2013-02-21 01:40:00,24.8,8.4,29.98,West,272,0.0,0.0,49,0.00,,,0.00,VWS V13.01,2013-02-21 06:40:00,
2013-02-21 01:45:00,24.6,8.2,29.98,SSE,163,0.0,3.6,49,0.00,,,0.00,VWS V13.01,2013-02-21 06:45:00,
2013-02-21 01:50:00,24.8,8.8,29.98,SSE,158,0.0,2.2,50,0.00,,,0.00,VWS V13.01,2013-02-21 06:50:00,
2013-02-21 01:55:00,24.6,9.1,29.98,WSW,258,2.2,2.2,51,0.00,,,0.00,VWS V13.01,2013-02-21 06:55:00,
2013-02-21 02:00:00,24.6,8.2,29.98,WSW,243,0.0,4.0,49,0.00,,,0.00,VWS V13.01,2013-02-21 07:00:00,
2013-02-21 02:05:00,24.6,8.6,29.98,SSW,198,2.2,4.0,50,0.00,,,0.00,VWS V13.01,2013-02-21 07:05:00,
2013-02-21 02:10:00,24.6,8.6,29.98,West,262,0.0,0.0,50,0.00,,,0.00,VWS V13.01,2013-02-21 07:10:00,
2013-02-21 02:15:00,24.6,8.6,29.98,West,268,0.0,0.0,50,0.00,,,0.00,VWS V13.01,2013-02-21 07:15:00,
2013-02-21 02:20:00,24.6,8.6,29.98,SE,126,0.0,3.6,50,0.00,,,0.00,VWS V13.01,2013-02-21 07:20:00,
2013-02-21 02:25:00,24.6,8.6,29.98,ESE,116,0.0,2.7,50,0.00,,,0.00,VWS V13.01,2013-02-21 07:25:00,
2013-02-21 02:30:00,24.6,9.5,29.98,ESE,116,0.0,0.0,52,0.00,,,0.00,VWS V13.01,2013-02-21 07:30:00,
2013-02-21 02:35:00,24.4,8.9,29.98,SW,229,0.0,2.7,51,0.00,,,0.00,VWS V13.01,2013-02-21 07:35:00,
2013-02-21 02:40:00,24.4,8.5,29.98,WNW,283,0.0,4.0,50,0.00,,,0.00,VWS V13.01,2013-02-21 07:40:00,
2013-02-21 02:45:00,24.4,8.9,29.98,NE,56,0.0,2.7,51,0.00,,,0.00,VWS V13.01,2013-02-21 07:45:00,
2013-02-21 02:50:00,24.4,9.8,29.98,SE,136,0.0,4.0,53,0.00,,,0.00,VWS V13.01,2013-02-21 07:50:00,
2013-02-21 02:55:00,24.4,9.8,29.98,SSE,147,2.2,2.7,53,0.00,,,0.00,VWS V13.01,2013-02-21 07:55:00,
2013-02-21 03:00:00,24.4,9.8,29.98,South,182,0.0,2.7,53,0.00,,,0.00,VWS V13.01,2013-02-21 08:00:00,
2013-02-21 03:05:00,24.4,9.8,29.98,SE,140,0.0,2.7,53,0.00,,,0.00,VWS V13.01,2013-02-21 08:05:00,
2013-02-21 03:10:00,24.6,9.9,29.98,SE,144,0.0,0.0,53,0.00,,,0.00,VWS V13.01,2013-02-21 08:10:00,
2013-02-21 03:15:00,24.8,9.7,29.98,SE,145,0.0,0.0,52,0.00,,,0.00,VWS V13.01,2013-02-21 08:15:00,
2013-02-21 03:20:00,24.8,9.7,29.98,SE,139,0.0,0.0,52,0.00,,,0.00,VWS V13.01,2013-02-21 08:20:00,
2013-02-21 03:25:00,24.8,9.2,29.98,SSE,155,0.0,2.2,51,0.00,,,0.00,VWS V13.01,2013-02-21 08:25:00,
2013-02-21 03:30:00,25.0,9.4,29.98,SSE,154,0.0,3.6,51,0.00,,,0.00,VWS V13.01,2013-02-21 08:30:00,
2013-02-21 03:35:00,25.0,9.4,29.98,WSW,250,0.0,3.6,51,0.00,,,0.00,VWS V13.01,2013-02-21 08:35:00,
2013-02-21 03:39:00,25.0,9.0,29.98,SSE,158,3.1,4.0,50,0.00,,,0.00,VWS V13.01,2013-02-21 08:39:00,
2013-02-21 03:40:00,25.0,9.0,29.98,SSE,158,3.1,4.0,50,0.00,,,0.00,VWS V13.01,2013-02-21 08:40:00,
2013-02-21 03:44:00,25.2,9.6,29.98,West,263,0.0,3.1,51,0.00,,,0.00,VWS V13.01,2013-02-21 08:44:00,
2013-02-21 03:45:00,25.2,9.6,29.98,West,263,0.0,3.1,51,0.00,,,0.00,VWS V13.01,2013-02-21 08:45:00,
2013-02-21 03:49:00,25.3,10.2,29.98,West,266,0.0,0.0,52,0.00,,,0.00,VWS V13.01,2013-02-21 08:49:00,
2013-02-21 03:50:00,25.3,10.2,29.98,West,266,0.0,0.0,52,0.00,,,0.00,VWS V13.01,2013-02-21 08:50:00,
2013-02-21 03:54:00,25.3,9.8,29.98,SW,219,4.0,4.0,51,0.00,,,0.00,VWS V13.01,2013-02-21 08:54:00,
2013-02-21 03:55:00,25.3,9.8,29.98,SW,222,0.0,4.0,51,0.00,,,0.00,VWS V13.01,2013-02-21 08:55:00,
2013-02-21 03:59:00,25.3,9.8,29.98,South,182,0.0,2.7,51,0.00,,,0.00,VWS V13.01,2013-02-21 08:59:00,
2013-02-21 04:00:00,25.3,9.8,29.98,South,182,0.0,2.7,51,0.00,,,0.00,VWS V13.01,2013-02-21 09:00:00,
2013-02-21 04:04:00,25.3,9.8,29.98,South,182,0.0,2.2,51,0.00,,,0.00,VWS V13.01,2013-02-21 09:04:00,
2013-02-21 04:05:00,25.3,9.8,29.98,South,182,0.0,2.2,51,0.00,,,0.00,VWS V13.01,2013-02-21 09:05:00,
2013-02-21 04:09:00,25.3,10.2,29.98,WNW,299,0.0,2.7,52,0.00,,,0.00,VWS V13.01,2013-02-21 09:09:00,
2013-02-21 04:10:00,25.3,10.2,29.98,WNW,300,0.0,2.7,52,0.00,,,0.00,VWS V13.01,2013-02-21 09:10:00,
2013-02-21 04:14:00,25.3,9.8,29.98,South,175,0.0,2.2,51,0.00,,,0.00,VWS V13.01,2013-02-21 09:14:00,
2013-02-21 04:15:00,25.3,10.2,29.95,South,175,0.0,2.2,52,0.00,,,0.00,VWS V13.01,2013-02-21 09:15:00,
2013-02-21 04:19:00,25.3,10.2,29.95,South,175,0.0,0.0,52,0.00,,,0.00,VWS V13.01,2013-02-21 09:19:00,
2013-02-21 04:20:00,25.3,10.2,29.95,South,175,0.0,0.0,52,0.00,,,0.00,VWS V13.01,2013-02-21 09:20:00,
2013-02-21 04:24:00,25.2,10.0,29.95,SE,126,0.0,2.7,52,0.00,,,0.00,VWS V13.01,2013-02-21 09:24:00,
2013-02-21 04:25:00,25.2,10.0,29.95,SE,126,0.0,2.7,52,0.00,,,0.00,VWS V13.01,2013-02-21 09:25:00,
2013-02-21 04:29:00,25.3,9.8,29.95,West,280,0.0,5.4,51,0.00,,,0.00,VWS V13.01,2013-02-21 09:29:00,
2013-02-21 04:30:00,25.3,9.8,29.95,WSW,240,2.7,5.4,51,0.00,,,0.00,VWS V13.01,2013-02-21 09:30:00,
2013-02-21 04:34:00,25.3,9.8,29.98,SW,222,0.0,5.8,51,0.00,,,0.00,VWS V13.01,2013-02-21 09:34:00,
2013-02-21 04:35:00,25.3,10.2,29.98,SW,222,0.0,5.8,52,0.00,,,0.00,VWS V13.01,2013-02-21 09:35:00,
2013-02-21 04:39:00,25.3,9.8,29.98,SSE,151,2.7,4.5,51,0.00,,,0.00,VWS V13.01,2013-02-21 09:39:00,
2013-02-21 04:40:00,25.3,9.8,29.98,SSE,163,2.2,4.5,51,0.00,,,0.00,VWS V13.01,2013-02-21 09:40:00,
2013-02-21 04:44:00,25.3,10.2,29.98,SSW,204,2.7,3.6,52,0.00,,,0.00,VWS V13.01,2013-02-21 09:44:00,
2013-02-21 04:45:00,25.3,10.2,29.98,WNW,282,3.1,3.6,52,0.00,,,0.00,VWS V13.01,2013-02-21 09:45:00,
2013-02-21 04:49:00,25.3,9.8,29.98,WSW,249,0.0,3.6,51,0.00,,,0.00,VWS V13.01,2013-02-21 09:49:00,
2013-02-21 04:50:00,25.3,9.8,29.98,WSW,249,0.0,3.6,51,0.00,,,0.00,VWS V13.01,2013-02-21 09:50:00,
2013-02-21 04:54:00,25.5,9.5,29.98,West,271,0.0,2.7,50,0.00,,,0.00,VWS V13.01,2013-02-21 09:54:00,
2013-02-21 04:55:00,25.5,9.5,29.98,South,173,0.0,2.7,50,0.00,,,0.00,VWS V13.01,2013-02-21 09:55:00,
2013-02-21 04:59:00,25.5,10.4,29.98,SE,131,0.0,3.1,52,0.00,,,0.00,VWS V13.01,2013-02-21 09:59:00,
2013-02-21 05:00:00,25.5,10.4,29.98,South,174,0.0,3.1,52,0.00,,,0.00,VWS V13.01,2013-02-21 10:00:00,
2013-02-21 05:04:00,25.5,10.4,29.98,SE,141,2.7,3.1,52,0.00,,,0.00,VWS V13.01,2013-02-21 10:04:00,
2013-02-21 05:05:00,25.5,9.9,29.98,SE,141,0.0,3.1,51,0.00,,,0.00,VWS V13.01,2013-02-21 10:05:00,
2013-02-21 05:09:00,25.7,10.5,29.98,SE,142,2.7,2.7,52,0.00,,,0.00,VWS V13.01,2013-02-21 10:09:00,
2013-02-21 05:10:00,25.7,10.5,29.98,SE,142,4.0,4.0,52,0.00,,,0.00,VWS V13.01,2013-02-21 10:10:00,
2013-02-21 05:14:00,25.7,10.1,29.98,SSE,154,2.2,4.0,51,0.00,,,0.00,VWS V13.01,2013-02-21 10:14:00,
2013-02-21 05:15:00,25.7,10.5,29.98,South,188,2.2,4.0,52,0.00,,,0.00,VWS V13.01,2013-02-21 10:15:00,
2013-02-21 05:19:00,25.7,10.1,29.98,West,281,0.0,3.6,51,0.00,,,0.00,VWS V13.01,2013-02-21 10:19:00,
2013-02-21 05:20:00,25.7,9.6,29.98,West,281,0.0,3.6,50,0.00,,,0.00,VWS V13.01,2013-02-21 10:20:00,
2013-02-21 05:24:00,25.7,9.6,29.98,WNW,284,3.1,4.0,50,0.00,,,0.00,VWS V13.01,2013-02-21 10:24:00,
2013-02-21 05:25:00,25.7,9.6,29.98,SW,220,4.0,4.0,50,0.00,,,0.00,VWS V13.01,2013-02-21 10:25:00,
2013-02-21 05:29:00,25.7,9.2,29.98,West,271,0.0,4.0,49,0.00,,,0.00,VWS V13.01,2013-02-21 10:29:00,
2013-02-21 05:30:00,25.7,9.2,29.98,West,271,0.0,4.0,49,0.00,,,0.00,VWS V13.01,2013-02-21 10:30:00,
2013-02-21 05:34:00,25.7,9.6,29.98,SE,134,2.7,4.9,50,0.00,,,0.00,VWS V13.01,2013-02-21 10:34:00,
2013-02-21 05:35:00,25.7,9.6,29.98,WSW,248,2.7,4.9,50,0.00,,,0.00,VWS V13.01,2013-02-21 10:35:00,
2013-02-21 05:39:00,25.7,9.6,29.98,SW,222,2.2,5.4,50,0.00,,,0.00,VWS V13.01,2013-02-21 10:39:00,
2013-02-21 05:40:00,25.7,9.6,29.98,WSW,245,2.7,5.4,50,0.00,,,0.00,VWS V13.01,2013-02-21 10:40:00,
2013-02-21 05:44:00,25.7,9.6,29.98,SSW,211,0.0,2.7,50,0.00,,,0.00,VWS V13.01,2013-02-21 10:44:00,
2013-02-21 05:45:00,25.7,9.6,29.98,SSW,211,0.0,2.7,50,0.00,,,0.00,VWS V13.01,2013-02-21 10:45:00,
2013-02-21 05:49:00,25.7,9.2,29.98,WSW,258,0.0,3.1,49,0.00,,,0.00,VWS V13.01,2013-02-21 10:49:00,
2013-02-21 05:50:00,25.7,9.2,29.98,WSW,258,0.0,3.1,49,0.00,,,0.00,VWS V13.01,2013-02-21 10:50:00,
2013-02-21 05:54:00,25.7,10.1,29.98,South,185,0.0,3.1,51,0.00,,,0.00,VWS V13.01,2013-02-21 10:54:00,
2013-02-21 05:55:00,25.7,9.6,29.98,SW,230,2.2,3.1,50,0.00,,,0.00,VWS V13.01,2013-02-21 10:55:00,
2013-02-21 05:59:00,25.7,9.2,29.98,NW,309,3.6,3.6,49,0.00,,,0.00,VWS V13.01,2013-02-21 10:59:00,
2013-02-21 06:00:00,25.7,9.2,30.01,WNW,287,0.0,4.0,49,0.00,,,0.00,VWS V13.01,2013-02-21 11:00:00,
2013-02-21 06:04:00,25.5,9.0,30.01,SW,215,0.0,3.1,49,0.00,,,0.00,VWS V13.01,2013-02-21 11:04:00,
2013-02-21 06:05:00,25.5,8.6,30.01,SW,215,0.0,3.1,48,0.00,,,0.00,VWS V13.01,2013-02-21 11:05:00,
2013-02-21 06:09:00,25.5,9.0,30.01,SE,126,0.0,3.6,49,0.00,,,0.00,VWS V13.01,2013-02-21 11:09:00,
2013-02-21 06:10:00,25.5,9.0,30.01,West,272,3.1,3.6,49,0.00,,,0.00,VWS V13.01,2013-02-21 11:10:00,
2013-02-21 06:14:00,25.5,9.5,30.01,WSW,258,0.0,3.1,50,0.00,,,0.00,VWS V13.01,2013-02-21 11:14:00,
2013-02-21 06:15:00,25.5,9.0,30.01,West,269,0.0,3.1,49,0.00,,,0.00,VWS V13.01,2013-02-21 11:15:00,
2013-02-21 06:19:00,25.5,9.0,30.01,West,266,0.0,5.8,49,0.00,,,0.00,VWS V13.01,2013-02-21 11:19:00,
2013-02-21 06:20:00,25.5,9.0,30.01,West,264,2.7,5.8,49,0.00,,,0.00,VWS V13.01,2013-02-21 11:20:00,
2013-02-21 06:24:00,25.3,8.9,30.01,WNW,283,0.0,2.7,49,0.00,,,0.00,VWS V13.01,2013-02-21 11:24:00,
2013-02-21 06:25:00,25.3,8.9,30.01,WNW,283,2.2,2.7,49,0.00,,,0.00,VWS V13.01,2013-02-21 11:25:00,
2013-02-21 06:29:00,25.3,8.9,30.01,NNW,343,0.0,3.1,49,0.00,,,0.00,VWS V13.01,2013-02-21 11:29:00,
2013-02-21 06:30:00,25.3,9.3,30.01,East,83,2.7,3.1,50,0.00,,,0.00,VWS V13.01,2013-02-21 11:30:00,
2013-02-21 06:34:00,25.3,9.3,30.01,North,9,0.0,2.7,50,0.00,,,0.00,VWS V13.01,2013-02-21 11:34:00,
2013-02-21 06:35:00,25.3,9.3,30.01,North,9,0.0,2.7,50,0.00,,,0.00,VWS V13.01,2013-02-21 11:35:00,
2013-02-21 06:39:00,25.5,10.4,30.01,East,98,0.0,3.1,52,0.00,,,0.00,VWS V13.01,2013-02-21 11:39:00,
2013-02-21 06:40:00,25.5,10.4,30.01,NE,50,2.7,3.1,52,0.00,,,0.00,VWS V13.01,2013-02-21 11:40:00,
2013-02-21 06:44:00,25.5,10.4,30.01,NW,304,0.0,2.7,52,0.00,,,0.00,VWS V13.01,2013-02-21 11:44:00,
2013-02-21 06:45:00,25.5,9.9,30.01,South,169,4.0,4.0,51,0.00,,,0.00,VWS V13.01,2013-02-21 11:45:00,
2013-02-21 06:49:00,25.3,9.3,30.01,SW,226,2.2,4.0,50,0.00,,,0.00,VWS V13.01,2013-02-21 11:49:00,
2013-02-21 06:50:00,25.3,8.9,30.01,SW,226,0.0,4.0,49,0.00,,,0.00,VWS V13.01,2013-02-21 11:50:00,
2013-02-21 06:54:00,25.3,9.8,30.01,West,275,0.0,3.1,51,0.00,,,0.00,VWS V13.01,2013-02-21 11:54:00,
2013-02-21 06:55:00,25.3,9.3,30.01,WNW,290,0.0,3.1,50,0.00,,,0.00,VWS V13.01,2013-02-21 11:55:00,
2013-02-21 06:59:00,25.3,8.9,30.01,ESE,122,2.2,2.7,49,0.00,,,0.00,VWS V13.01,2013-02-21 11:59:00,
2013-02-21 07:00:00,25.3,8.9,30.01,SE,140,0.0,2.7,49,0.00,,,0.00,VWS V13.01,2013-02-21 12:00:00,
2013-02-21 07:04:00,25.3,8.9,30.01,SSW,202,0.0,2.7,49,0.00,,,0.00,VWS V13.01,2013-02-21 12:04:00,
2013-02-21 07:05:00,25.3,9.3,30.01,SSW,192,0.0,2.7,50,0.00,,,0.00,VWS V13.01,2013-02-21 12:05:00,
2013-02-21 07:09:00,25.3,8.9,30.01,NNE,15,2.7,4.0,49,0.00,,,0.00,VWS V13.01,2013-02-21 12:09:00,
2013-02-21 07:10:00,25.3,8.9,30.01,NNE,15,0.0,4.0,49,0.00,,,0.00,VWS V13.01,2013-02-21 12:10:00,
2013-02-21 07:14:00,25.5,9.5,30.01,NNE,15,0.0,0.0,50,0.00,,,0.00,VWS V13.01,2013-02-21 12:14:00,
2013-02-21 07:15:00,25.5,9.5,30.01,NNE,15,0.0,0.0,50,0.00,,,0.00,VWS V13.01,2013-02-21 12:15:00,
2013-02-21 07:19:00,25.5,9.0,30.01,WNW,295,0.0,3.1,49,0.00,,,0.00,VWS V13.01,2013-02-21 12:19:00,
2013-02-21 07:20:00,25.5,9.0,30.01,NNW,339,2.7,3.6,49,0.00,,,0.00,VWS V13.01,2013-02-21 12:20:00,
2013-02-21 07:24:00,25.5,8.6,30.01,NW,322,0.0,4.0,48,0.00,,,0.00,VWS V13.01,2013-02-21 12:24:00,
2013-02-21 07:25:00,25.5,8.6,30.01,NNW,332,2.2,4.0,48,0.00,,,0.00,VWS V13.01,2013-02-21 12:25:00,
2013-02-21 07:29:00,25.3,8.4,30.01,NW,306,2.7,3.1,48,0.00,,,0.00,VWS V13.01,2013-02-21 12:29:00,
2013-02-21 07:30:00,25.3,8.4,30.01,WNW,292,0.0,3.1,48,0.00,,,0.00,VWS V13.01,2013-02-21 12:30:00,
2013-02-21 07:34:00,25.5,9.0,30.01,East,87,2.7,2.7,49,0.00,,,0.00,VWS V13.01,2013-02-21 12:34:00,
2013-02-21 07:35:00,25.5,9.5,30.01,East,87,0.0,2.7,50,0.00,,,0.00,VWS V13.01,2013-02-21 12:35:00,
2013-02-21 07:39:00,25.7,8.7,30.01,WSW,253,0.0,3.1,48,0.00,,,0.00,VWS V13.01,2013-02-21 12:39:00,
2013-02-21 07:40:00,25.7,8.7,30.01,WSW,253,0.0,3.1,48,0.00,,,0.00,VWS V13.01,2013-02-21 12:40:00,
2013-02-21 07:44:00,25.9,9.4,30.01,WSW,253,0.0,0.0,49,0.00,,,0.00,VWS V13.01,2013-02-21 12:44:00,
2013-02-21 07:45:00,26.1,10.0,30.01,WSW,253,0.0,0.0,50,0.00,,,0.00,VWS V13.01,2013-02-21 12:45:00,
2013-02-21 07:49:00,26.1,9.1,30.01,SW,235,0.0,2.7,48,0.00,,,0.00,VWS V13.01,2013-02-21 12:49:00,
2013-02-21 07:50:00,26.1,9.1,30.01,SW,229,2.7,2.7,48,0.00,,,0.00,VWS V13.01,2013-02-21 12:50:00,
2013-02-21 07:54:00,26.1,9.1,30.01,SW,227,0.0,7.2,48,0.00,,,0.00,VWS V13.01,2013-02-21 12:54:00,
2013-02-21 07:55:00,26.1,9.1,30.01,SW,235,3.1,7.2,48,0.00,,,0.00,VWS V13.01,2013-02-21 12:55:00,
2013-02-21 07:59:00,26.1,8.6,30.01,SW,226,2.2,5.4,47,0.00,,,0.00,VWS V13.01,2013-02-21 12:59:00,
2013-02-21 08:00:00,26.1,8.6,30.01,SW,225,0.0,5.4,47,0.00,,,0.00,VWS V13.01,2013-02-21 13:00:00,
2013-02-21 08:04:00,26.2,9.2,30.01,SSW,202,5.4,5.4,48,0.00,,,0.00,VWS V13.01,2013-02-21 13:04:00,
2013-02-21 08:05:00,26.1,8.6,30.01,SW,217,0.0,7.6,47,0.00,,,0.00,VWS V13.01,2013-02-21 13:05:00,
2013-02-21 08:09:00,26.2,8.8,30.01,WSW,247,0.0,3.6,47,0.00,,,0.00,VWS V13.01,2013-02-21 13:09:00,
2013-02-21 08:10:00,26.2,9.2,30.01,SW,228,0.0,3.6,48,0.00,,,0.00,VWS V13.01,2013-02-21 13:10:00,
2013-02-21 08:14:00,26.2,8.8,30.01,SW,232,2.2,5.4,47,0.00,,,0.00,VWS V13.01,2013-02-21 13:14:00,
2013-02-21 08:15:00,26.2,8.8,30.01,SW,232,0.0,5.4,47,0.00,,,0.00,VWS V13.01,2013-02-21 13:15:00,
2013-02-21 08:19:00,26.4,8.9,30.01,SW,220,2.2,9.6,47,0.00,,,0.00,VWS V13.01,2013-02-21 13:19:00,
2013-02-21 08:20:00,26.4,8.9,30.01,SW,225,2.7,9.6,47,0.00,,,0.00,VWS V13.01,2013-02-21 13:20:00,
2013-02-21 08:24:00,26.4,8.9,30.01,West,279,2.7,5.4,47,0.00,,,0.00,VWS V13.01,2013-02-21 13:24:00,
2013-02-21 08:25:00,26.4,8.9,30.01,SW,219,2.7,5.4,47,0.00,,,0.00,VWS V13.01,2013-02-21 13:25:00,
2013-02-21 08:29:00,26.4,8.5,30.01,West,271,4.0,6.3,46,0.00,,,0.00,VWS V13.01,2013-02-21 13:29:00,
2013-02-21 08:30:00,26.4,8.5,30.01,WSW,252,0.0,6.3,46,0.00,,,0.00,VWS V13.01,2013-02-21 13:30:00,
2013-02-21 08:34:00,26.6,9.1,30.01,SW,229,2.7,3.1,47,0.00,,,0.00,VWS V13.01,2013-02-21 13:34:00,
2013-02-21 08:35:00,26.6,9.1,30.01,SW,220,2.2,3.1,47,0.00,,,0.00,VWS V13.01,2013-02-21 13:35:00,
2013-02-21 08:39:00,26.6,8.6,30.01,SW,231,4.0,5.4,46,0.00,,,0.00,VWS V13.01,2013-02-21 13:39:00,
2013-02-21 08:40:00,26.6,9.1,30.01,SW,232,3.1,5.8,47,0.00,,,0.00,VWS V13.01,2013-02-21 13:40:00,
2013-02-21 08:44:00,26.6,9.1,30.01,SW,226,3.1,4.0,47,0.00,,,0.00,VWS V13.01,2013-02-21 13:44:00,
2013-02-21 08:45:00,26.6,9.1,30.01,West,270,3.6,4.0,47,0.00,,,0.00,VWS V13.01,2013-02-21 13:45:00,
2013-02-21 08:49:00,26.6,8.6,30.01,SW,230,2.7,5.8,46,0.00,,,0.00,VWS V13.01,2013-02-21 13:49:00,
2013-02-21 08:50:00,26.6,9.1,30.01,SW,230,0.0,5.8,47,0.00,,,0.00,VWS V13.01,2013-02-21 13:50:00,
2013-02-21 08:54:00,26.6,8.6,30.01,NE,41,0.0,3.1,46,0.00,,,0.00,VWS V13.01,2013-02-21 13:54:00,
2013-02-21 08:55:00,26.8,9.3,30.01,SW,234,3.1,3.1,47,0.00,,,0.00,VWS V13.01,2013-02-21 13:55:00,
2013-02-21 08:59:00,26.8,9.3,30.01,SE,142,3.6,5.4,47,0.00,,,0.00,VWS V13.01,2013-02-21 13:59:00,
2013-02-21 09:00:00,27.0,9.4,30.01,WSW,244,0.0,5.4,47,0.00,,,0.00,VWS V13.01,2013-02-21 14:00:00,
2013-02-21 09:04:00,27.0,8.9,30.01,West,265,2.2,8.1,46,0.00,,,0.00,VWS V13.01,2013-02-21 14:04:00,
2013-02-21 09:05:00,27.0,8.9,30.01,West,265,0.0,8.1,46,0.00,,,0.00,VWS V13.01,2013-02-21 14:05:00,
2013-02-21 09:09:00,27.0,8.9,30.01,SW,221,3.6,5.8,46,0.00,,,0.00,VWS V13.01,2013-02-21 14:09:00,
2013-02-21 09:10:00,27.1,9.1,30.01,SW,219,0.0,5.8,46,0.00,,,0.00,VWS V13.01,2013-02-21 14:10:00,
2013-02-21 09:14:00,27.0,8.9,30.01,SW,232,4.9,5.8,46,0.00,,,0.00,VWS V13.01,2013-02-21 14:14:00,
2013-02-21 09:15:00,27.1,9.1,30.01,SSE,148,3.6,5.8,46,0.00,,,0.00,VWS V13.01,2013-02-21 14:15:00,
2013-02-21 09:19:00,27.1,9.1,30.01,SE,146,3.6,5.4,46,0.00,,,0.00,VWS V13.01,2013-02-21 14:19:00,
2013-02-21 09:20:00,27.1,9.1,30.01,SW,231,4.0,5.4,46,0.00,,,0.00,VWS V13.01,2013-02-21 14:20:00,
2013-02-21 09:24:00,27.5,9.4,30.01,NW,326,3.6,4.0,46,0.00,,,0.00,VWS V13.01,2013-02-21 14:24:00,
2013-02-21 09:25:00,27.5,9.4,30.01,West,268,0.0,4.0,46,0.00,,,0.00,VWS V13.01,2013-02-21 14:25:00,
2013-02-21 09:29:00,27.7,9.6,30.01,SW,214,0.0,4.0,46,0.00,,,0.00,VWS V13.01,2013-02-21 14:29:00,
2013-02-21 09:30:00,27.7,9.6,30.01,West,262,3.1,5.4,46,0.00,,,0.00,VWS V13.01,2013-02-21 14:30:00,
2013-02-21 09:34:00,27.7,9.6,30.01,North,353,2.2,3.6,46,0.00,,,0.00,VWS V13.01,2013-02-21 14:34:00,
2013-02-21 09:35:00,27.7,9.1,30.01,NE,41,4.0,4.0,45,0.00,,,0.00,VWS V13.01,2013-02-21 14:35:00,
2013-02-21 09:39:00,27.9,9.8,30.01,SSW,213,2.2,4.0,46,0.00,,,0.00,VWS V13.01,2013-02-21 14:39:00,
2013-02-21 09:40:00,27.9,9.8,30.01,West,271,2.2,4.0,46,0.00,,,0.00,VWS V13.01,2013-02-21 14:40:00,
2013-02-21 09:44:00,28.2,10.1,30.01,SW,222,3.1,7.6,46,0.00,,,0.00,VWS V13.01,2013-02-21 14:44:00,
2013-02-21 09:45:00,28.2,9.6,30.01,SW,222,3.6,7.6,45,0.00,,,0.00,VWS V13.01,2013-02-21 14:45:00,
2013-02-21 09:49:00,28.6,9.9,30.01,SW,214,3.6,5.4,45,0.00,,,0.00,VWS V13.01,2013-02-21 14:49:00,
2013-02-21 09:50:00,28.8,10.1,30.01,WSW,245,4.0,5.4,45,0.00,,,0.00,VWS V13.01,2013-02-21 14:50:00,
2013-02-21 09:54:00,28.9,10.3,30.01,South,184,3.6,5.4,45,0.00,,,0.00,VWS V13.01,2013-02-21 14:54:00,
2013-02-21 09:55:00,29.1,10.4,30.01,West,269,4.9,5.4,45,0.00,,,0.00,VWS V13.01,2013-02-21 14:55:00,
2013-02-21 09:59:00,29.5,10.8,30.01,SW,228,0.0,5.4,45,0.00,,,0.00,VWS V13.01,2013-02-21 14:59:00,
2013-02-21 10:00:00,29.5,10.8,30.01,NW,312,2.2,5.4,45,0.00,,,0.00,VWS V13.01,2013-02-21 15:00:00,
2013-02-21 10:04:00,29.8,10.6,30.01,WSW,240,2.7,4.0,44,0.00,,,0.00,VWS V13.01,2013-02-21 15:04:00,
2013-02-21 10:05:00,30.0,10.8,30.01,NW,304,5.4,5.4,44,0.00,,,0.00,VWS V13.01,2013-02-21 15:05:00,
2013-02-21 10:09:00,29.8,10.6,30.01,South,178,4.0,7.6,44,0.00,,,0.00,VWS V13.01,2013-02-21 15:09:00,
2013-02-21 10:10:00,29.8,10.6,30.01,SW,215,3.6,7.6,44,0.00,,,0.00,VWS V13.01,2013-02-21 15:10:00,
2013-02-21 10:14:00,30.2,10.9,30.01,South,186,3.1,5.4,44,0.00,,,0.00,VWS V13.01,2013-02-21 15:14:00,
2013-02-21 10:15:00,30.2,10.9,30.01,SW,235,2.7,5.4,44,0.00,,,0.00,VWS V13.01,2013-02-21 15:15:00,
2013-02-21 10:19:00,30.6,11.2,30.01,SW,225,3.1,3.6,44,0.00,,,0.00,VWS V13.01,2013-02-21 15:19:00,
2013-02-21 10:20:00,30.6,11.3,30.01,SW,219,4.0,5.4,44,0.00,,,0.00,VWS V13.01,2013-02-21 15:20:00,
2013-02-21 10:24:00,30.6,11.2,30.01,SSE,163,2.2,5.8,44,0.00,,,0.00,VWS V13.01,2013-02-21 15:24:00,
2013-02-21 10:25:00,30.7,11.4,30.01,SW,225,3.1,5.8,44,0.00,,,0.00,VWS V13.01,2013-02-21 15:25:00,
2013-02-21 10:29:00,30.9,11.1,30.01,WNW,289,3.6,11.9,43,0.00,,,0.00,VWS V13.01,2013-02-21 15:29:00,
2013-02-21 10:30:00,30.7,10.9,30.01,WSW,246,4.0,11.9,43,0.00,,,0.00,VWS V13.01,2013-02-21 15:30:00,
2013-02-21 10:34:00,30.9,11.1,30.01,NNW,343,2.7,6.7,43,0.00,,,0.00,VWS V13.01,2013-02-21 15:34:00,
2013-02-21 10:35:00,31.1,11.2,30.01,SW,214,3.1,6.7,43,0.00,,,0.00,VWS V13.01,2013-02-21 15:35:00,
2013-02-21 10:39:00,30.9,11.1,30.01,WNW,289,4.9,5.8,43,0.00,,,0.00,VWS V13.01,2013-02-21 15:39:00,
2013-02-21 10:40:00,31.1,11.2,30.01,NNW,341,3.6,5.8,43,0.00,,,0.00,VWS V13.01,2013-02-21 15:40:00,
2013-02-21 10:44:00,31.1,11.2,30.01,SSW,207,2.7,6.3,43,0.00,,,0.00,VWS V13.01,2013-02-21 15:44:00,
2013-02-21 10:45:00,31.1,11.2,30.01,WSW,244,2.2,6.3,43,0.00,,,0.00,VWS V13.01,2013-02-21 15:45:00,
2013-02-21 10:49:00,31.5,11.6,30.01,WNW,282,3.1,4.0,43,0.00,,,0.00,VWS V13.01,2013-02-21 15:49:00,
2013-02-21 10:50:00,31.6,11.7,30.01,WNW,285,3.6,4.0,43,0.00,,,0.00,VWS V13.01,2013-02-21 15:50:00,
2013-02-21 10:54:00,31.6,11.2,30.01,SW,228,0.0,8.7,42,0.00,,,0.00,VWS V13.01,2013-02-21 15:54:00,
2013-02-21 10:55:00,31.8,11.9,30.01,SW,225,4.0,8.7,43,0.00,,,0.00,VWS V13.01,2013-02-21 15:55:00,
2013-02-21 10:58:00,32.0,11.5,30.01,SW,222,4.5,6.3,42,0.00,,,0.00,VWS V13.01,2013-02-21 15:58:00,
2013-02-21 11:00:00,32.2,12.2,30.01,WSW,247,3.1,6.3,43,0.00,,,0.00,VWS V13.01,2013-02-21 16:00:00,
2013-02-21 11:03:00,32.5,12.5,30.01,South,170,4.0,4.0,43,0.00,,,0.00,VWS V13.01,2013-02-21 16:03:00,
2013-02-21 11:05:00,32.5,12.5,30.01,SW,220,3.1,5.4,43,0.00,,,0.00,VWS V13.01,2013-02-21 16:05:00,
2013-02-21 11:08:00,32.5,12.5,30.01,SW,216,3.1,5.8,43,0.00,,,0.00,VWS V13.01,2013-02-21 16:08:00,
2013-02-21 11:10:00,32.7,12.7,30.01,North,4,0.0,6.3,43,0.00,,,0.00,VWS V13.01,2013-02-21 16:10:00,
2013-02-21 11:13:00,32.5,12.0,30.01,SW,222,3.1,5.8,42,0.00,,,0.00,VWS V13.01,2013-02-21 16:13:00,
2013-02-21 11:15:00,32.7,12.7,30.04,West,265,2.2,5.8,43,0.00,,,0.00,VWS V13.01,2013-02-21 16:15:00,
2013-02-21 11:18:00,32.7,12.2,30.04,SW,219,2.7,4.5,42,0.00,,,0.00,VWS V13.01,2013-02-21 16:18:00,
2013-02-21 11:20:00,32.7,12.2,30.04,West,280,2.2,5.8,42,0.00,,,0.00,VWS V13.01,2013-02-21 16:20:00,
2013-02-21 11:23:00,32.9,12.3,30.04,WNW,288,4.0,4.0,42,0.00,,,0.00,VWS V13.01,2013-02-21 16:23:00,
2013-02-21 11:25:00,32.9,12.9,30.04,West,273,2.2,4.0,43,0.00,,,0.00,VWS V13.01,2013-02-21 16:25:00,
2013-02-21 11:28:00,33.1,13.0,30.04,SW,222,4.0,5.8,43,0.00,,,0.00,VWS V13.01,2013-02-21 16:28:00,
2013-02-21 11:30:00,33.3,13.2,30.04,SW,221,7.6,7.6,43,0.00,,,0.00,VWS V13.01,2013-02-21 16:30:00,
2013-02-21 11:33:00,33.3,12.7,30.04,WNW,286,2.7,7.6,42,0.00,,,0.00,VWS V13.01,2013-02-21 16:33:00,
2013-02-21 11:35:00,33.3,12.7,30.04,SW,221,4.0,7.6,42,0.00,,,0.00,VWS V13.01,2013-02-21 16:35:00,
2013-02-21 11:38:00,33.1,13.0,30.04,North,359,3.6,5.8,43,0.00,,,0.00,VWS V13.01,2013-02-21 16:38:00,
2013-02-21 11:40:00,33.3,12.7,30.04,SW,227,3.6,5.8,42,0.00,,,0.00,VWS V13.01,2013-02-21 16:40:00,
2013-02-21 11:43:00,33.3,12.7,30.04,SW,225,3.6,8.1,42,0.00,,,0.00,VWS V13.01,2013-02-21 16:43:00,
2013-02-21 11:45:00,33.3,12.7,30.01,NNW,347,4.0,8.1,42,0.00,,,0.00,VWS V13.01,2013-02-21 16:45:00,
2013-02-21 11:48:00,33.1,12.5,30.01,West,265,3.1,5.8,42,0.00,,,0.00,VWS V13.01,2013-02-21 16:48:00,
2013-02-21 11:50:00,33.1,12.5,30.01,South,172,2.7,5.8,42,0.00,,,0.00,VWS V13.01,2013-02-21 16:50:00,
2013-02-21 11:53:00,33.6,13.0,30.01,SW,229,0.0,4.5,42,0.00,,,0.00,VWS V13.01,2013-02-21 16:53:00,
2013-02-21 11:55:00,33.6,13.5,30.01,WSW,251,4.0,4.5,43,0.00,,,0.00,VWS V13.01,2013-02-21 16:55:00,
2013-02-21 11:58:00,33.4,12.8,30.01,SW,218,2.7,4.0,42,0.00,,,0.00,VWS V13.01,2013-02-21 16:58:00,
2013-02-21 12:00:00,33.6,13.0,30.01,NW,316,2.7,4.0,42,0.00,,,0.00,VWS V13.01,2013-02-21 17:00:00,
2013-02-21 12:03:00,33.3,12.7,30.01,SSW,194,2.7,7.6,42,0.00,,,0.00,VWS V13.01,2013-02-21 17:03:00,
2013-02-21 12:05:00,33.4,13.4,30.01,SSW,196,4.0,7.6,43,0.00,,,0.00,VWS V13.01,2013-02-21 17:05:00,
2013-02-21 12:08:00,33.8,13.1,30.01,SSW,203,4.0,4.0,42,0.00,,,0.00,VWS V13.01,2013-02-21 17:08:00,
2013-02-21 12:10:00,33.8,13.1,30.01,WSW,237,2.2,5.8,42,0.00,,,0.00,VWS V13.01,2013-02-21 17:10:00,
2013-02-21 12:13:00,33.3,12.7,30.01,SSW,199,0.0,8.3,42,0.00,,,0.00,VWS V13.01,2013-02-21 17:13:00,
2013-02-21 12:15:00,33.3,12.7,30.01,South,191,3.6,8.3,42,0.00,,,0.00,VWS V13.01,2013-02-21 17:15:00,
2013-02-21 12:18:00,33.6,13.5,30.01,SSE,164,4.9,4.9,43,0.00,,,0.00,VWS V13.01,2013-02-21 17:18:00,
2013-02-21 12:20:00,33.6,13.5,30.01,WSW,258,0.0,4.9,43,0.00,,,0.00,VWS V13.01,2013-02-21 17:20:00,
2013-02-21 12:23:00,33.8,13.1,30.01,NE,42,2.7,4.9,42,0.00,,,0.00,VWS V13.01,2013-02-21 17:23:00,
2013-02-21 12:25:00,33.8,13.1,30.01,NE,48,0.0,4.9,42,0.00,,,0.00,VWS V13.01,2013-02-21 17:25:00,
2013-02-21 12:28:00,33.8,13.1,30.01,WNW,283,2.2,3.1,42,0.00,,,0.00,VWS V13.01,2013-02-21 17:28:00,
2013-02-21 12:30:00,33.8,13.7,30.01,SW,233,2.2,3.1,43,0.00,,,0.00,VWS V13.01,2013-02-21 17:30:00,
2013-02-21 12:33:00,33.8,13.1,30.01,WNW,284,2.7,7.2,42,0.00,,,0.00,VWS V13.01,2013-02-21 17:33:00,
2013-02-21 12:35:00,33.6,13.0,30.01,NW,312,3.6,7.2,42,0.00,,,0.00,VWS V13.01,2013-02-21 17:35:00,
2013-02-21 12:38:00,33.6,13.5,30.01,North,352,3.1,5.4,43,0.00,,,0.00,VWS V13.01,2013-02-21 17:38:00,
2013-02-21 12:40:00,33.6,13.0,30.01,West,275,3.1,5.4,42,0.00,,,0.00,VWS V13.01,2013-02-21 17:40:00,
2013-02-21 12:43:00,33.6,13.5,30.01,SSW,201,6.3,6.7,43,0.00,,,0.00,VWS V13.01,2013-02-21 17:43:00,
2013-02-21 12:45:00,33.6,13.0,29.98,WSW,238,3.1,6.7,42,0.00,,,0.00,VWS V13.01,2013-02-21 17:45:00,
2013-02-21 12:48:00,33.3,13.2,29.98,SW,219,2.7,8.7,43,0.00,,,0.00,VWS V13.01,2013-02-21 17:48:00,
2013-02-21 12:50:00,33.4,13.4,29.98,East,92,2.7,8.7,43,0.00,,,0.00,VWS V13.01,2013-02-21 17:50:00,
2013-02-21 12:53:00,33.3,12.7,29.98,SW,223,3.6,8.3,42,0.00,,,0.00,VWS V13.01,2013-02-21 17:53:00,
2013-02-21 12:55:00,33.4,13.4,29.98,WNW,292,0.0,8.3,43,0.00,,,0.00,VWS V13.01,2013-02-21 17:55:00,
2013-02-21 12:58:00,33.4,13.4,29.98,West,269,4.0,6.3,43,0.00,,,0.00,VWS V13.01,2013-02-21 17:58:00,
2013-02-21 13:00:00,33.6,13.5,29.98,SW,226,2.7,8.7,43,0.00,,,0.00,VWS V13.01,2013-02-21 18:00:00,
2013-02-21 13:03:00,33.6,13.5,29.98,SSE,162,4.0,8.1,43,0.00,,,0.00,VWS V13.01,2013-02-21 18:03:00,
2013-02-21 13:05:00,33.4,13.4,29.98,WNW,287,3.1,8.1,43,0.00,,,0.00,VWS V13.01,2013-02-21 18:05:00,
2013-02-21 13:08:00,33.6,13.5,29.98,SW,226,3.6,5.8,43,0.00,,,0.00,VWS V13.01,2013-02-21 18:08:00,
2013-02-21 13:10:00,33.4,13.4,29.98,WNW,297,4.0,5.8,43,0.00,,,0.00,VWS V13.01,2013-02-21 18:10:00,
2013-02-21 13:13:00,33.4,12.8,29.98,WSW,254,4.0,4.0,42,0.00,,,0.00,VWS V13.01,2013-02-21 18:13:00,
2013-02-21 13:15:00,33.4,13.4,29.98,WSW,242,2.7,8.1,43,0.00,,,0.00,VWS V13.01,2013-02-21 18:15:00,
2013-02-21 13:18:00,33.3,12.7,29.98,West,267,2.2,4.5,42,0.00,,,0.00,VWS V13.01,2013-02-21 18:18:00,
2013-02-21 13:20:00,33.3,13.2,29.98,SW,225,2.2,4.5,43,0.00,,,0.00,VWS V13.01,2013-02-21 18:20:00,
2013-02-21 13:23:00,33.4,13.4,29.98,West,266,0.0,3.1,43,0.00,,,0.00,VWS V13.01,2013-02-21 18:23:00,
2013-02-21 13:25:00,33.6,13.5,29.98,SW,220,3.1,3.1,43,0.00,,,0.00,VWS V13.01,2013-02-21 18:25:00,
2013-02-21 13:28:00,33.4,13.4,29.98,WNW,302,2.2,7.6,43,0.00,,,0.00,VWS V13.01,2013-02-21 18:28:00,
2013-02-21 13:30:00,33.6,13.5,30.01,West,263,0.0,7.6,43,0.00,,,0.00,VWS V13.01,2013-02-21 18:30:00,
2013-02-21 13:33:00,33.8,13.1,30.01,SW,224,3.1,4.9,42,0.00,,,0.00,VWS V13.01,2013-02-21 18:33:00,
2013-02-21 13:35:00,33.8,13.1,30.01,WNW,284,3.1,5.4,42,0.00,,,0.00,VWS V13.01,2013-02-21 18:35:00,
2013-02-21 13:38:00,33.8,13.7,30.01,WSW,254,2.7,6.3,43,0.00,,,0.00,VWS V13.01,2013-02-21 18:38:00,
2013-02-21 13:40:00,33.8,13.7,30.01,SSE,163,4.0,6.3,43,0.00,,,0.00,VWS V13.01,2013-02-21 18:40:00,
2013-02-21 13:43:00,34.0,13.9,30.01,WNW,297,4.9,4.9,43,0.00,,,0.00,VWS V13.01,2013-02-21 18:43:00,
2013-02-21 13:45:00,34.0,13.3,30.01,WSW,250,3.1,4.9,42,0.00,,,0.00,VWS V13.01,2013-02-21 18:45:00,
2013-02-21 13:48:00,33.8,13.1,30.01,South,174,8.3,8.3,42,0.00,,,0.00,VWS V13.01,2013-02-21 18:48:00,
2013-02-21 13:50:00,34.0,13.9,30.01,SSE,148,2.7,8.3,43,0.00,,,0.00,VWS V13.01,2013-02-21 18:50:00,
2013-02-21 13:53:00,34.2,14.0,30.01,WSW,248,2.2,3.1,43,0.00,,,0.00,VWS V13.01,2013-02-21 18:53:00,
2013-02-21 13:55:00,34.2,14.0,30.01,WSW,254,3.1,4.9,43,0.00,,,0.00,VWS V13.01,2013-02-21 18:55:00,
2013-02-21 13:58:00,34.3,14.2,30.01,West,262,2.7,6.3,43,0.00,,,0.00,VWS V13.01,2013-02-21 18:58:00,
2013-02-21 14:00:00,34.3,14.2,30.01,SE,145,0.0,6.3,43,0.00,,,0.00,VWS V13.01,2013-02-21 19:00:00,
2013-02-21 14:03:00,34.5,13.8,30.01,SW,216,0.0,3.6,42,0.00,,,0.00,VWS V13.01,2013-02-21 19:03:00,
2013-02-21 14:05:00,34.7,14.5,30.01,WNW,288,3.6,5.4,43,0.00,,,0.00,VWS V13.01,2013-02-21 19:05:00,
2013-02-21 14:08:00,34.5,13.8,30.01,SW,235,2.7,4.0,42,0.00,,,0.00,VWS V13.01,2013-02-21 19:08:00,
2013-02-21 14:10:00,34.5,14.3,30.01,SSE,163,3.6,4.0,43,0.00,,,0.00,VWS V13.01,2013-02-21 19:10:00,
2013-02-21 14:13:00,34.5,14.3,30.01,SW,230,2.7,7.2,43,0.00,,,0.00,VWS V13.01,2013-02-21 19:13:00,
2013-02-21 14:15:00,34.3,13.6,30.01,North,354,3.1,7.2,42,0.00,,,0.00,VWS V13.01,2013-02-21 19:15:00,
2013-02-21 14:18:00,34.0,13.3,30.01,West,280,2.7,4.0,42,0.00,,,0.00,VWS V13.01,2013-02-21 19:18:00,
2013-02-21 14:20:00,34.0,13.3,30.01,NW,325,2.7,4.0,42,0.00,,,0.00,VWS V13.01,2013-02-21 19:20:00,
2013-02-21 14:23:00,34.0,13.3,30.01,North,354,3.1,4.0,42,0.00,,,0.00,VWS V13.01,2013-02-21 19:23:00,
2013-02-21 14:25:00,34.2,13.5,30.01,WNW,288,0.0,4.0,42,0.00,,,0.00,VWS V13.01,2013-02-21 19:25:00,
2013-02-21 14:28:00,34.3,14.2,30.01,SW,220,2.7,4.0,43,0.00,,,0.00,VWS V13.01,2013-02-21 19:28:00,
2013-02-21 14:30:00,34.3,13.6,30.01,West,261,4.0,5.4,42,0.00,,,0.00,VWS V13.01,2013-02-21 19:30:00,
2013-02-21 14:33:00,34.3,13.6,30.01,SW,230,3.6,4.9,42,0.00,,,0.00,VWS V13.01,2013-02-21 19:33:00,
2013-02-21 14:35:00,34.5,14.3,30.01,West,270,0.0,6.3,43,0.00,,,0.00,VWS V13.01,2013-02-21 19:35:00,
2013-02-21 14:38:00,34.5,13.8,30.01,WNW,282,2.7,4.0,42,0.00,,,0.00,VWS V13.01,2013-02-21 19:38:00,
2013-02-21 14:40:00,34.7,14.0,30.01,South,191,0.0,4.0,42,0.00,,,0.00,VWS V13.01,2013-02-21 19:40:00,
2013-02-21 14:47:00,34.7,14.0,30.01,North,358,0.0,0.0,42,0.00,,,0.00,VWS V13.01,2013-02-21 19:47:00,
2013-02-21 14:50:00,34.9,14.7,30.01,NE,45,0.0,3.6,43,2.47,,,2.47,VWS V13.01,2013-02-21 19:50:00,
2013-02-21 14:52:00,35.1,14.8,30.01,South,173,0.0,4.0,43,2.47,,,2.47,VWS V13.01,2013-02-21 19:52:00,
2013-02-21 14:55:00,35.2,14.5,30.01,WSW,245,0.0,4.0,42,2.47,,,2.47,VWS V13.01,2013-02-21 19:55:00,
2013-02-21 14:57:00,35.2,15.0,30.01,NW,305,2.7,2.7,43,2.47,,,2.47,VWS V13.01,2013-02-21 19:57:00,
2013-02-21 15:02:00,35.4,14.6,30.01,NNW,328,0.0,4.9,42,2.47,,,2.47,VWS V13.01,2013-02-21 20:02:00,
2013-02-21 15:07:00,35.4,14.6,30.01,WSW,254,0.0,4.9,42,2.47,,,2.47,VWS V13.01,2013-02-21 20:07:00,
2013-02-21 15:10:00,35.1,14.3,30.01,South,182,3.1,5.4,42,2.47,,,2.47,VWS V13.01,2013-02-21 20:10:00,
2013-02-21 15:12:00,35.2,14.5,30.01,SW,222,2.2,3.6,42,2.47,,,2.47,VWS V13.01,2013-02-21 20:12:00,
2013-02-21 15:15:00,35.1,14.3,30.01,NNW,330,3.1,4.0,42,2.47,,,2.47,VWS V13.01,2013-02-21 20:15:00,
2013-02-21 15:17:00,35.2,14.5,30.01,WSW,244,3.1,5.8,42,2.47,,,2.47,VWS V13.01,2013-02-21 20:17:00,
2013-02-21 15:20:00,35.2,14.5,30.01,NNW,347,2.7,5.8,42,2.47,,,2.47,VWS V13.01,2013-02-21 20:20:00,
2013-02-21 15:22:00,35.1,14.3,30.01,SW,228,3.1,7.6,42,2.47,,,2.47,VWS V13.01,2013-02-21 20:22:00,
2013-02-21 15:25:00,35.1,14.3,30.01,NNW,334,2.2,7.6,42,2.47,,,2.47,VWS V13.01,2013-02-21 20:25:00,
2013-02-21 15:27:00,34.9,14.1,30.01,SW,235,0.0,5.4,42,2.47,,,2.47,VWS V13.01,2013-02-21 20:27:00,
2013-02-21 15:30:00,34.9,14.1,30.04,South,176,0.0,5.4,42,2.47,,,2.47,VWS V13.01,2013-02-21 20:30:00,
2013-02-21 15:32:00,35.1,14.3,30.04,SE,146,3.6,4.0,42,2.47,,,2.47,VWS V13.01,2013-02-21 20:32:00,
2013-02-21 15:37:00,35.4,14.6,30.04,NNW,339,3.1,3.6,42,2.47,,,2.47,VWS V13.01,2013-02-21 20:37:00,
2013-02-21 15:40:00,35.4,14.6,30.04,WNW,282,0.0,3.6,42,2.47,,,2.47,VWS V13.01,2013-02-21 20:40:00,
2013-02-21 15:42:00,35.4,14.6,30.04,WNW,298,2.2,5.8,42,2.47,,,2.47,VWS V13.01,2013-02-21 20:42:00,
2013-02-21 15:45:00,35.4,14.6,30.04,WSW,257,4.9,5.8,42,2.47,,,2.47,VWS V13.01,2013-02-21 20:45:00,
2013-02-21 15:47:00,35.6,14.2,30.04,SSW,204,0.0,4.9,41,2.47,,,2.47,VWS V13.01,2013-02-21 20:47:00,
2013-02-21 15:50:00,35.6,14.8,30.04,West,268,0.0,4.9,42,2.47,,,2.47,VWS V13.01,2013-02-21 20:50:00,
2013-02-21 15:52:00,35.8,14.4,30.04,WSW,249,0.0,3.6,41,0.00,,,2.47,VWS V13.01,2013-02-21 20:52:00,
2013-02-21 15:57:00,35.8,14.4,30.04,East,83,2.2,5.4,41,0.00,,,2.47,VWS V13.01,2013-02-21 20:57:00,
2013-02-21 16:00:00,36.1,14.7,30.04,WSW,253,0.0,5.4,41,0.00,,,2.47,VWS V13.01,2013-02-21 21:00:00,
2013-02-21 16:02:00,36.3,14.9,30.04,SW,234,0.0,3.1,41,0.00,,,2.47,VWS V13.01,2013-02-21 21:02:00,
2013-02-21 16:05:00,36.3,14.9,30.04,NW,317,2.7,3.6,41,0.00,,,2.47,VWS V13.01,2013-02-21 21:05:00,
2013-02-21 16:07:00,36.0,14.6,30.04,West,268,2.7,5.8,41,0.00,,,2.47,VWS V13.01,2013-02-21 21:07:00,
2013-02-21 16:10:00,36.1,14.7,30.04,SW,218,3.6,5.8,41,0.00,,,2.47,VWS V13.01,2013-02-21 21:10:00,
2013-02-21 16:19:00,35.8,14.4,30.07,North,357,3.6,3.6,41,0.00,,,2.47,VWS V13.01,2013-02-21 21:19:00,
2013-02-21 16:24:00,35.6,14.8,30.07,WSW,254,0.0,2.7,42,2.47,,,4.94,VWS V13.01,2013-02-21 21:24:00,
2013-02-21 18:53:00,28.6,10.4,30.13,WSW,237,4.0,4.0,46,0.00,,,4.94,VWS V13.01,2013-02-21 23:53:00,
2013-02-21 18:58:00,28.6,10.4,30.13,SW,236,2.2,3.6,46,2.47,,,7.41,VWS V13.01,2013-02-21 23:58:00,